Back to catalog

ATLAS 5 CENTAUR DEB

AliveHEO
NORAD 44658·DEBRIS·🇺🇸 United States

Launched Oct 17, 2018 from Cape Canaveral Space Force Station

Loading…

Next Passes (next 24 hours)

TLE

FreshSource: Space-Track

Epoch: Sep 11, 2026, 09:44 UTC

1 44658U 18079U   26254.40603803 -.00000194  00000-0  00000-0 0  9990
2 44658  13.8104  22.0814 4694733 335.1543   8.0192  1.81725075 48562

Track ATLAS 5 CENTAUR DEB in real time with AllMySat

Download on the App Store